Regional Weather Roundup
Issued by NWS

Home | Current Version | Previous Version | Graphics & Text | Print | Product List | Glossary Off
Versions: 1 2 3 4 5 6 7 8 9 10 11 12 13 14 15 16 17 18 19 20 21 22 23 24 25 26 27 28 29 30 31 32 33 34 35 36 37 38 39 40 41 42 43 44 45 46 47 48 49 50

000
ASUS43 KTOP 290259
RWRKS

WEATHER ROUNDUP FOR KANSAS
NATIONAL WEATHER SERVICE GOODLAND KS
1000 PM CDT TUE MAR 28 2017

NOTE:  "FAIR" INDICATES FEW OR NO CLOUDS BELOW 12,000 FEET WITH NO
SIGNIFICANT WEATHER AND/OR OBSTRUCTIONS TO VISIBILITY.

KSZ001>006-013>018-027>032-041>047-290400-
NORTHWEST KANSAS

CITY           SKY/WX    TMP DP  RH WIND       PRES   REMARKS
GOODLAND       CLOUDY    40  40 100 E14       29.97R FOG     WCI  32
HAYS             N/A     46  45  96 NE18      29.94R
HILL CITY      CLOUDY    45  44  97 NE17G26   29.99R FOG
RUSSELL        LGT RAIN  46  45  96 E22G35    29.88F
$$

KSZ061>065-074>080-084>089-290400-
SOUTHWEST KANSAS

CITY           SKY/WX    TMP DP  RH WIND       PRES   REMARKS
DODGE CITY     CLOUDY    46  45  96 E22       29.86R
ELKHART          N/A     43  38  83 NE10        N/A
GARDEN CITY    CLOUDY    44  42  93 NE20      29.86R
LIBERAL        CLOUDY    46  41  81 NE13      29.84R
$$

KSZ066>073-081>083-090>101-290400-
SOUTHEAST KANSAS

CITY           SKY/WX    TMP DP  RH WIND       PRES   REMARKS
CHANUTE        CLOUDY    57  50  77 E16G25    29.86F
COFFEYVILLE    CLOUDY    61  52  72 E18G26    29.81F
MEDICINE LODGE   N/A     48  46  93 N20G28    29.87F
NEWTON         TSTM      50  49  96 N16       29.92R FOG
PARSONS        CLOUDY    60  51  72 E9G22     29.85F
WICHITA INTL   TSTM      51  51 100 N15       29.88S FOG
WICHITA JABRA  TSTM      51  50  96 N16       29.87S FOG
WICHITA MCCONL TSTM      52  50  93 NW21      29.85R FOG
WINFIELD       LGT RAIN  56  51  84 N12G23    29.79R
$$

KSZ007>012-019>026-033>040-048>060-102>105-290400-
NORTHEAST KANSAS

CITY           SKY/WX    TMP DP  RH WIND       PRES   REMARKS
CONCORDIA      LGT RAIN  46  45  96 NE7       30.03R FOG
EMPORIA        CLOUDY    53  51  93 NE21      29.89F
LAWRENCE       CLOUDY    54  51  90 E14       30.02R
MANHATTAN      LGT RAIN  51  49  92 E17G23    29.98F FOG
OLATHE IND     CLOUDY    53  49  86 E15       30.01R
OLATHE EXE     CLOUDY    52  51  97 E15       30.00R
SALINA         HVY RAIN  51  49  92 N13       29.99R FOG
TOPEKA BILLARD CLOUDY    53  51  93 E13       30.00R
TOPEKA FORBES  CLOUDY    54  50  86 E13       29.98F
$$




USA.gov is the U.S. government's official web portal to all federal, state and local government web resources and services.